| time (UTC) | temp C | wind direction | speed KPH | gust KPH | rain 1hr cm | rain 24hr cm | rain mn cm | humidity % | barometer mb |
| 20260503224123 | 15 | 175 | 8.0 | 19.3 | 0.00 | 0.03 | 0.03 | 72 | 1015.6 |
| 20260503223122 | 15 | 169 | 8.0 | 19.3 | 0.00 | 0.03 | 0.03 | 72 | 1015.5 |
| 20260503222123 | 16 | 220 | 6.4 | 20.9 | 0.00 | 0.03 | 0.03 | 72 | 1015.5 |
| 20260503221123 | 16 | 207 | 8.0 | 16.1 | 0.00 | 0.03 | 0.03 | 73 | 1015.5 |
| 20260503220144 | 16 | 194 | 6.4 | 17.7 | 0.00 | 0.03 | 0.03 | 74 | 1015.3 |
| 20260503215144 | 16 | 190 | 6.4 | 16.1 | 0.00 | 0.03 | 0.03 | 76 | 1015.4 |
| 20260503214122 | 16 | 206 | 6.4 | 12.9 | 0.00 | 0.03 | 0.03 | 75 | 1015.3 |
| 20260503213122 | 16 | 201 | 9.7 | 19.3 | 0.00 | 0.03 | 0.03 | 75 | 1015.2 |
| 20260503212122 | 16 | 152 | 4.8 | 11.3 | 0.00 | 0.03 | 0.03 | 74 | 1015.3 |
| 20260503211122 | 16 | 164 | 6.4 | 19.3 | 0.00 | 0.03 | 0.03 | 75 | 1015.3 |
| 20260503210122 | 16 | 210 | 6.4 | 14.5 | 0.00 | 0.03 | 0.03 | 75 | 1015.2 |
| 20260503205122 | 16 | 172 | 4.8 | 12.9 | 0.00 | 0.03 | 0.03 | 74 | 1015.3 |
| 20260503204123 | 16 | 175 | 4.8 | 11.3 | 0.00 | 0.03 | 0.03 | 75 | 1015.4 |
| 20260503203123 | 16 | 214 | 4.8 | 19.3 | 0.00 | 0.03 | 0.03 | 74 | 1015.4 |
| 20260503202122 | 16 | 205 | 6.4 | 14.5 | 0.00 | 0.03 | 0.03 | 74 | 1015.5 |
| 20260503201123 | 15 | 217 | 4.8 | 12.9 | 0.00 | 0.03 | 0.03 | 75 | 1015.5 |
| 20260503200122 | 15 | 210 | 6.4 | 16.1 | 0.00 | 0.03 | 0.03 | 77 | 1015.5 |
| 20260503195123 | 15 | 236 | 4.8 | 12.9 | 0.00 | 0.03 | 0.03 | 79 | 1015.4 |
| 20260503194144 | 15 | 211 | 4.8 | 12.9 | 0.00 | 0.03 | 0.03 | 80 | 1015.5 |
| 20260503193123 | 14 | 215 | 4.8 | 12.9 | 0.00 | 0.03 | 0.03 | 81 | 1015.4 |
| 20260503192122 | 13 | 187 | 4.8 | 14.5 | 0.00 | 0.03 | 0.03 | 82 | 1015.5 |
| 20260503191123 | 13 | 158 | 4.8 | 12.9 | 0.00 | 0.03 | 0.03 | 83 | 1015.5 |
| 20260503190122 | 13 | 189 | 4.8 | 12.9 | 0.00 | 0.03 | 0.03 | 84 | 1015.5 |
| 20260503185122 | 13 | 210 | 4.8 | 11.3 | 0.00 | 0.03 | 0.03 | 84 | 1015.4 |
| 20260503184122 | 13 | 230 | 4.8 | 14.5 | 0.00 | 0.03 | 0.03 | 85 | 1015.4 |
| 20260503183122 | 13 | 208 | 4.8 | 14.5 | 0.00 | 0.03 | 0.03 | 85 | 1015.4 |
| 20260503182123 | 13 | 203 | 4.8 | 14.5 | 0.00 | 0.03 | 0.03 | 86 | 1015.3 |
| 20260503181144 | 13 | 236 | 6.4 | 6.4 | 0.00 | 0.03 | 0.03 | 87 | 1015.4 |
| 20260503180123 | 13 | 248 | 6.4 | 12.9 | 0.00 | 0.03 | 0.03 | 88 | 1015.3 |
| 20260503175122 | 13 | 238 | 4.8 | 14.5 | 0.00 | 0.03 | 0.03 | 89 | 1015.4 |
| 20260503174122 | 12 | 222 | 6.4 | 12.9 | 0.00 | 0.03 | 0.03 | 90 | 1015.3 |
| 20260503173122 | 12 | 240 | 6.4 | 17.7 | 0.00 | 0.03 | 0.03 | 91 | 1015.2 |
| 20260503172123 | 12 | 165 | 4.8 | 11.3 | 0.00 | 0.03 | 0.03 | 91 | 1015.2 |
| 20260503171123 | 12 | 209 | 4.8 | 8.0 | 0.03 | 0.03 | 0.03 | 91 | 1015.3 |
| 20260503170122 | 12 | 297 | 3.2 | 8.0 | 0.03 | 0.03 | 0.03 | 92 | 1015.2 |
| 20260503160122 | 11 | 168 | 1.6 | 8.0 | 0.00 | 0.00 | 0.00 | 91 | 1015.2 |
| 20260503150143 | 11 | 159 | 1.6 | 6.4 | 0.00 | 0.00 | 0.00 | 91 | 1014.6 |
| 20260503140122 | 11 | 239 | 1.6 | 4.8 | 0.00 | 0.00 | 0.00 | 90 | 1014.0 |
| 20260503131122 | 11 | 240 | 1.6 | 6.4 | 0.00 | 0.00 | 0.00 | 90 | 1013.4 |
| 20260503130122 | 11 | 241 | 1.6 | 6.4 | 0.00 | 0.00 | 0.00 | 90 | 1013.1 |
| 20260503120122 | 11 | 238 | 0.0 | 1.6 | 0.00 | 0.00 | 0.00 | 90 | 1013.2 |
| 20260503110122 | 11 | 221 | 1.6 | 8.0 | 0.00 | 0.00 | 0.00 | 90 | 1013.2 |
| 20260503100122 | 11 | 243 | 4.8 | 14.5 | 0.00 | 0.00 | 0.00 | 90 | 1013.2 |
| 20260503090143 | 11 | 252 | 4.8 | 14.5 | 0.00 | 0.00 | 0.00 | 90 | 1013.6 |
| 20260503081143 | 11 | 250 | 3.2 | 8.0 | 0.00 | 0.00 | 0.00 | 90 | 1014.3 |
| 20260503080122 | 11 | 257 | 3.2 | 6.4 | 0.00 | 0.00 | 0.00 | 90 | 1014.4 |
| 20260503072122 | 11 | 275 | 4.8 | 11.3 | 0.00 | 0.00 | 0.00 | 90 | 1014.2 |
| 20260503071122 | 11 | 268 | 6.4 | 12.9 | 0.00 | 0.00 | 0.00 | 90 | 1014.1 |
| 20260503060143 | 11 | 258 | 3.2 | 8.0 | 0.00 | 0.00 | 0.00 | 90 | 1014.3 |
| 20260503055122 | 11 | 262 | 4.8 | 12.9 | 0.00 | 0.00 | 0.00 | 90 | 1014.5 |
| 20260503054122 | 11 | 273 | 4.8 | 12.9 | 0.00 | 0.00 | 0.00 | 90 | 1014.6 |
| 20260503053122 | 11 | 266 | 4.8 | 12.9 | 0.00 | 0.00 | 0.00 | 90 | 1014.7 |
| 20260503052122 | 11 | 268 | 6.4 | 14.5 | 0.00 | 0.00 | 0.00 | 90 | 1014.9 |
| 20260503051122 | 11 | 265 | 6.4 | 11.3 | 0.00 | 0.00 | 0.00 | 90 | 1014.7 |
| 20260503050122 | 11 | 261 | 4.8 | 11.3 | 0.00 | 0.00 | 0.00 | 90 | 1014.8 |
| 20260503045122 | 11 | 265 | 4.8 | 12.9 | 0.00 | 0.00 | 0.00 | 90 | 1014.7 |
| 20260503044122 | 11 | 269 | 6.4 | 12.9 | 0.00 | 0.00 | 0.00 | 90 | 1014.7 |
| 20260503043122 | 11 | 266 | 6.4 | 12.9 | 0.00 | 0.00 | 0.00 | 90 | 1014.7 |
| 20260503042122 | 11 | 276 | 6.4 | 14.5 | 0.00 | 0.00 | 0.00 | 90 | 1014.5 |
| 20260503041122 | 11 | 250 | 6.4 | 16.1 | 0.00 | 0.00 | 0.00 | 90 | 1014.6 |
| 20260503040122 | 11 | 251 | 4.8 | 12.9 | 0.00 | 0.00 | 0.00 | 90 | 1014.5 |
| 20260503035122 | 11 | 260 | 4.8 | 11.3 | 0.00 | 0.00 | 0.00 | 90 | 1014.5 |
| 20260503034122 | 11 | 270 | 6.4 | 16.1 | 0.00 | 0.00 | 0.00 | 89 | 1014.4 |
| 20260503033122 | 11 | 258 | 6.4 | 14.5 | 0.00 | 0.00 | 0.00 | 89 | 1014.4 |
| 20260503032122 | 11 | 260 | 6.4 | 14.5 | 0.00 | 0.00 | 0.00 | 89 | 1014.3 |
| 20260503031122 | 11 | 255 | 8.0 | 17.7 | 0.00 | 0.00 | 0.00 | 89 | 1014.2 |
| 20260503030122 | 11 | 249 | 8.0 | 17.7 | 0.00 | 0.00 | 0.00 | 88 | 1013.8 |
| 20260503025122 | 11 | 275 | 6.4 | 14.5 | 0.00 | 0.00 | 0.00 | 88 | 1013.9 |
| 20260503024122 | 11 | 258 | 8.0 | 16.1 | 0.00 | 0.00 | 0.00 | 88 | 1013.9 |
| 20260503023122 | 11 | 270 | 8.0 | 16.1 | 0.00 | 0.00 | 0.00 | 87 | 1013.8 |
| 20260503022122 | 11 | 276 | 8.0 | 17.7 | 0.00 | 0.00 | 0.00 | 87 | 1013.9 |
| 20260503021122 | 11 | 266 | 6.4 | 16.1 | 0.00 | 0.00 | 0.00 | 87 | 1014.0 |
| 20260503020123 | 12 | 267 | 8.0 | 19.3 | 0.00 | 0.00 | 0.00 | 87 | 1014.1 |
| 20260503015122 | 12 | 261 | 4.8 | 16.1 | 0.00 | 0.00 | 0.00 | 86 | 1014.2 |
| 20260503014122 | 12 | 243 | 4.8 | 16.1 | 0.00 | 0.00 | 0.00 | 86 | 1014.1 |
| 20260503013122 | 12 | 266 | 8.0 | 17.7 | 0.00 | 0.00 | 0.00 | 86 | 1014.1 |
| 20260503012122 | 12 | 258 | 6.4 | 12.9 | 0.00 | 0.00 | 0.00 | 86 | 1014.3 |
| 20260503011122 | 12 | 254 | 4.8 | 12.9 | 0.00 | 0.00 | 0.00 | 86 | 1014.3 |
| 20260503010122 | 12 | 263 | 8.0 | 14.5 | 0.00 | 0.00 | 0.00 | 85 | 1014.4 |
| 20260503005122 | 12 | 265 | 6.4 | 14.5 | 0.00 | 0.00 | 0.00 | 85 | 1014.4 |
| 20260503004122 | 12 | 251 | 6.4 | 12.9 | 0.00 | 0.00 | 0.00 | 85 | 1014.4 |
| 20260503003122 | 12 | 261 | 11.3 | 17.7 | 0.00 | 0.00 | 0.00 | 85 | 1014.4 |
| 20260503002144 | 12 | 255 | 6.4 | 17.7 | 0.00 | 0.00 | 0.00 | 85 | 1014.4 |
| 20260503001122 | 12 | 243 | 4.8 | 12.9 | 0.00 | 0.00 | 0.00 | 85 | 1014.4 |
| 20260503000122 | 12 | 247 | 8.0 | 8.0 | 0.00 | 0.00 | 0.00 | 84 | 1014.4 |
| 20260502235122 | 12 | 254 | 8.0 | 17.7 | 0.00 | 0.00 | 0.00 | 84 | 1014.6 |
| 20260502234122 | 12 | 260 | 8.0 | 17.7 | 0.00 | 0.00 | 0.00 | 84 | 1014.5 |
| 20260502233143 | 12 | 246 | 6.4 | 17.7 | 0.00 | 0.00 | 0.00 | 84 | 1014.7 |
| 20260502232122 | 13 | 262 | 6.4 | 14.5 | 0.00 | 0.00 | 0.00 | 85 | 1014.7 |
| 20260502231143 | 13 | 265 | 6.4 | 14.5 | 0.00 | 0.00 | 0.00 | 85 | 1014.9 |
| 20260502230122 | 13 | 275 | 9.7 | 17.7 | 0.00 | 0.00 | 0.00 | 84 | 1015.0 |
| 20260502225122 | 12 | 220 | 4.8 | 12.9 | 0.00 | 0.00 | 0.00 | 85 | 1015.0 |